Year,Month,Day,Hour,Minute,Value (Times are PST for temperature in C)
2012,09,20,00,00,15.10
2012,09,20,00,01,15.10
2012,09,20,00,02,15.00
2012,09,20,00,03,15.00
2012,09,20,00,04,15.00
2012,09,20,00,05,15.00
2012,09,20,00,06,15.00
2012,09,20,00,07,15.00
2012,09,20,00,08,15.00
2012,09,20,00,09,15.00
2012,09,20,00,10,15.00
2012,09,20,00,11,15.00
2012,09,20,00,12,15.00
2012,09,20,00,13,15.00
2012,09,20,00,14,15.00
2012,09,20,00,15,15.00
2012,09,20,00,16,15.00
2012,09,20,00,17,15.00
2012,09,20,00,18,14.90
2012,09,20,00,19,14.90
2012,09,20,00,20,14.90
2012,09,20,00,21,14.90
2012,09,20,00,22,14.90
2012,09,20,00,23,14.90
2012,09,20,00,24,14.90
2012,09,20,00,25,14.80
2012,09,20,00,26,14.80
2012,09,20,00,27,14.80
2012,09,20,00,28,14.70
2012,09,20,00,29,14.80
2012,09,20,00,30,14.90
2012,09,20,00,31,15.00
2012,09,20,00,32,15.00
2012,09,20,00,33,15.10
2012,09,20,00,34,15.30
2012,09,20,00,35,15.30
2012,09,20,00,36,15.40
2012,09,20,00,37,15.50
2012,09,20,00,38,15.50
2012,09,20,00,39,15.60
2012,09,20,00,40,15.60
2012,09,20,00,41,15.60
2012,09,20,00,42,15.60
2012,09,20,00,43,15.60
2012,09,20,00,44,15.60
2012,09,20,00,45,15.60
2012,09,20,00,46,15.60
2012,09,20,00,47,15.50
2012,09,20,00,48,15.40
2012,09,20,00,49,15.30
2012,09,20,00,50,15.30
2012,09,20,00,51,15.10
2012,09,20,00,52,15.00
2012,09,20,00,53,15.00
2012,09,20,00,54,15.00
2012,09,20,00,55,15.00
2012,09,20,00,56,15.00
2012,09,20,00,57,15.00
2012,09,20,00,58,15.00
2012,09,20,00,59,15.00
2012,09,20,01,00,15.00
2012,09,20,01,01,15.00
2012,09,20,01,02,15.00
2012,09,20,01,03,15.00
2012,09,20,01,04,15.00
2012,09,20,01,05,15.20
2012,09,20,01,06,15.30
2012,09,20,01,07,15.40
2012,09,20,01,08,15.40
2012,09,20,01,09,15.40
2012,09,20,01,10,15.30
2012,09,20,01,11,15.30
2012,09,20,01,12,15.20
2012,09,20,01,13,15.10
2012,09,20,01,14,15.00
2012,09,20,01,15,15.00
2012,09,20,01,16,15.00
2012,09,20,01,17,15.00
2012,09,20,01,18,15.00
2012,09,20,01,19,15.00
2012,09,20,01,20,14.90
2012,09,20,01,21,14.80
2012,09,20,01,22,14.80
2012,09,20,01,23,14.70
2012,09,20,01,24,14.70
2012,09,20,01,25,14.60
2012,09,20,01,26,14.60
2012,09,20,01,27,14.50
2012,09,20,01,28,14.50
2012,09,20,01,29,14.40
2012,09,20,01,30,14.40
2012,09,20,01,31,14.40
2012,09,20,01,32,14.30
2012,09,20,01,33,14.30
2012,09,20,01,34,14.30
2012,09,20,01,35,14.30
2012,09,20,01,36,14.20
2012,09,20,01,37,14.20
2012,09,20,01,38,14.20
2012,09,20,01,39,14.30
2012,09,20,01,40,14.30
2012,09,20,01,41,14.30
2012,09,20,01,42,14.40
2012,09,20,01,43,14.40
2012,09,20,01,44,14.50
2012,09,20,01,45,14.50
2012,09,20,01,46,14.40
2012,09,20,01,47,14.40
2012,09,20,01,48,14.30
2012,09,20,01,49,14.20
2012,09,20,01,50,14.20
2012,09,20,01,51,14.10
2012,09,20,01,52,14.00
2012,09,20,01,53,14.00
2012,09,20,01,54,13.90
2012,09,20,01,55,13.90
2012,09,20,01,56,13.90
2012,09,20,01,57,13.90
2012,09,20,01,58,13.90
2012,09,20,01,59,13.80
2012,09,20,02,00,13.90
2012,09,20,02,01,13.90
2012,09,20,02,02,13.90
2012,09,20,02,03,13.90
2012,09,20,02,04,14.00
2012,09,20,02,05,14.00
2012,09,20,02,06,14.00
2012,09,20,02,07,14.00
2012,09,20,02,08,14.00
2012,09,20,02,09,13.90
2012,09,20,02,10,13.90
2012,09,20,02,11,13.90
2012,09,20,02,12,13.90
2012,09,20,02,13,13.90
2012,09,20,02,14,13.90
2012,09,20,02,15,13.90
2012,09,20,02,16,13.90
2012,09,20,02,17,13.90
2012,09,20,02,18,13.90
2012,09,20,02,19,13.90
2012,09,20,02,20,13.90
2012,09,20,02,21,13.90
2012,09,20,02,22,13.90
2012,09,20,02,23,13.90
2012,09,20,02,24,13.90
2012,09,20,02,25,13.90
2012,09,20,02,26,13.90
2012,09,20,02,27,13.90
2012,09,20,02,28,14.00
2012,09,20,02,29,14.00
2012,09,20,02,30,14.00
2012,09,20,02,31,14.00
2012,09,20,02,32,14.00
2012,09,20,02,33,14.00
2012,09,20,02,34,14.10
2012,09,20,02,35,14.20
2012,09,20,02,36,14.30
2012,09,20,02,37,14.50
2012,09,20,02,38,14.60
2012,09,20,02,39,14.60
2012,09,20,02,40,14.60
2012,09,20,02,41,14.60
2012,09,20,02,42,14.50
2012,09,20,02,43,14.30
2012,09,20,02,44,14.20
2012,09,20,02,45,14.10
2012,09,20,02,46,14.00
2012,09,20,02,47,13.90
2012,09,20,02,48,13.80
2012,09,20,02,49,13.80
2012,09,20,02,50,13.80
2012,09,20,02,51,13.80
2012,09,20,02,52,13.80
2012,09,20,02,53,13.80
2012,09,20,02,54,13.80
2012,09,20,02,55,13.80
2012,09,20,02,56,13.80
2012,09,20,02,57,13.80
2012,09,20,02,58,13.80
2012,09,20,02,59,13.90
2012,09,20,03,00,13.90
2012,09,20,03,01,14.00
2012,09,20,03,02,14.00
2012,09,20,03,03,14.10
2012,09,20,03,04,14.10
2012,09,20,03,05,14.10
2012,09,20,03,06,14.20
2012,09,20,03,07,14.20
2012,09,20,03,08,14.20
2012,09,20,03,09,14.20
2012,09,20,03,10,14.20
2012,09,20,03,11,14.10
2012,09,20,03,12,14.10
2012,09,20,03,13,14.10
2012,09,20,03,14,14.00
2012,09,20,03,15,14.00
2012,09,20,03,16,13.90
2012,09,20,03,17,13.90
2012,09,20,03,18,13.90
2012,09,20,03,19,13.90
2012,09,20,03,20,13.90
2012,09,20,03,21,13.90
2012,09,20,03,22,13.90
2012,09,20,03,23,13.90
2012,09,20,03,24,13.90
2012,09,20,03,25,13.90
2012,09,20,03,26,13.90
2012,09,20,03,27,13.90
2012,09,20,03,28,13.90
2012,09,20,03,29,13.90
2012,09,20,03,30,13.80
2012,09,20,03,31,13.80
2012,09,20,03,32,13.70
2012,09,20,03,33,13.60
2012,09,20,03,34,13.60
2012,09,20,03,35,13.60
2012,09,20,03,36,13.50
2012,09,20,03,37,13.50
2012,09,20,03,38,13.50
2012,09,20,03,39,13.50
2012,09,20,03,40,13.40
2012,09,20,03,41,13.40
2012,09,20,03,42,13.30
2012,09,20,03,43,13.30
2012,09,20,03,44,13.20
2012,09,20,03,45,13.20
2012,09,20,03,46,13.20
2012,09,20,03,47,13.10
2012,09,20,03,48,13.10
2012,09,20,03,49,13.00
2012,09,20,03,50,13.00
2012,09,20,03,51,12.90
2012,09,20,03,52,12.80
2012,09,20,03,53,12.80
2012,09,20,03,54,12.80
2012,09,20,03,55,12.70
2012,09,20,03,56,12.70
2012,09,20,03,57,12.70
2012,09,20,03,58,12.70
2012,09,20,03,59,12.70
2012,09,20,04,00,12.70
2012,09,20,04,01,12.70
2012,09,20,04,02,12.70
2012,09,20,04,03,12.80
2012,09,20,04,04,12.80
2012,09,20,04,05,12.90
2012,09,20,04,06,13.00
2012,09,20,04,07,13.10
2012,09,20,04,08,13.10
2012,09,20,04,09,13.10
2012,09,20,04,10,13.10
2012,09,20,04,11,13.10
2012,09,20,04,12,13.00
2012,09,20,04,13,12.90
2012,09,20,04,14,12.90
2012,09,20,04,15,12.80
2012,09,20,04,16,12.80
2012,09,20,04,17,12.70
2012,09,20,04,18,12.70
2012,09,20,04,19,12.70
2012,09,20,04,20,12.70
2012,09,20,04,21,12.70
2012,09,20,04,22,12.70
2012,09,20,04,23,12.70
2012,09,20,04,24,12.80
2012,09,20,04,25,12.80
2012,09,20,04,26,12.80
2012,09,20,04,27,12.80
2012,09,20,04,28,12.70
2012,09,20,04,29,12.70
2012,09,20,04,30,12.70
2012,09,20,04,31,12.70
2012,09,20,04,32,12.70
2012,09,20,04,33,12.60
2012,09,20,04,34,12.60
2012,09,20,04,35,12.60
2012,09,20,04,36,12.50
2012,09,20,04,37,12.50
2012,09,20,04,38,12.40
2012,09,20,04,39,12.40
2012,09,20,04,40,12.30
2012,09,20,04,41,12.20
2012,09,20,04,42,12.20
2012,09,20,04,43,12.10
2012,09,20,04,44,12.10
2012,09,20,04,45,12.10
2012,09,20,04,46,12.10
2012,09,20,04,47,12.00
2012,09,20,04,48,11.90
2012,09,20,04,49,11.90
2012,09,20,04,50,11.90
2012,09,20,04,51,11.90
2012,09,20,04,52,11.90
2012,09,20,04,53,11.90
2012,09,20,04,54,11.90
2012,09,20,04,55,11.90
2012,09,20,04,56,11.90
2012,09,20,04,57,12.00
2012,09,20,04,58,12.00
2012,09,20,04,59,12.00
2012,09,20,05,00,12.00
2012,09,20,05,01,12.00
2012,09,20,05,02,11.90
2012,09,20,05,03,11.90
2012,09,20,05,04,11.90
2012,09,20,05,05,12.00
2012,09,20,05,06,12.10
2012,09,20,05,07,12.20
2012,09,20,05,08,12.30
2012,09,20,05,09,12.40
2012,09,20,05,10,12.40
2012,09,20,05,11,12.40
2012,09,20,05,12,12.40
2012,09,20,05,13,12.50
2012,09,20,05,14,12.50
2012,09,20,05,15,12.50
2012,09,20,05,16,12.60
2012,09,20,05,17,12.80
2012,09,20,05,18,12.90
2012,09,20,05,19,13.10
2012,09,20,05,20,13.30
2012,09,20,05,21,13.40
2012,09,20,05,22,13.40
2012,09,20,05,23,13.40
2012,09,20,05,24,13.40
2012,09,20,05,25,13.40
2012,09,20,05,26,13.40
2012,09,20,05,27,13.40
2012,09,20,05,28,13.40
2012,09,20,05,29,13.40
2012,09,20,05,30,13.40
2012,09,20,05,31,13.40
2012,09,20,05,32,13.50
2012,09,20,05,33,13.50
2012,09,20,05,34,13.50
2012,09,20,05,35,13.50
2012,09,20,05,36,13.50
2012,09,20,05,37,13.50
2012,09,20,05,38,13.50
2012,09,20,05,39,13.60
2012,09,20,05,40,13.60
2012,09,20,05,41,13.60
2012,09,20,05,42,13.60
2012,09,20,05,43,13.60
2012,09,20,05,44,13.60
2012,09,20,05,45,13.60
2012,09,20,05,46,13.60
2012,09,20,05,47,13.60
2012,09,20,05,48,13.60
2012,09,20,05,49,13.60
2012,09,20,05,50,13.60
2012,09,20,05,51,13.60
2012,09,20,05,52,13.60
2012,09,20,05,53,13.60
2012,09,20,05,54,13.50
2012,09,20,05,55,13.50
2012,09,20,05,56,13.40
2012,09,20,05,57,13.40
2012,09,20,05,58,13.40
2012,09,20,05,59,13.40
2012,09,20,06,00,13.40
2012,09,20,06,01,13.40
2012,09,20,06,02,13.30
2012,09,20,06,03,13.20
2012,09,20,06,04,13.20
2012,09,20,06,05,13.20
2012,09,20,06,06,13.20
2012,09,20,06,07,13.20
2012,09,20,06,08,13.10
2012,09,20,06,09,13.10
2012,09,20,06,10,13.10
2012,09,20,06,11,13.10
2012,09,20,06,12,13.20
2012,09,20,06,13,13.30
2012,09,20,06,14,13.30
2012,09,20,06,15,13.40
2012,09,20,06,16,13.50
2012,09,20,06,17,13.60
2012,09,20,06,18,13.60
2012,09,20,06,19,13.50
2012,09,20,06,20,13.50
2012,09,20,06,21,13.50
2012,09,20,06,22,13.40
2012,09,20,06,23,13.30
2012,09,20,06,24,13.30
2012,09,20,06,25,13.30
2012,09,20,06,26,13.20
2012,09,20,06,27,13.20
2012,09,20,06,28,13.20
2012,09,20,06,29,13.20
2012,09,20,06,30,13.20
2012,09,20,06,31,13.20
2012,09,20,06,32,13.20
2012,09,20,06,33,13.30
2012,09,20,06,34,13.30
2012,09,20,06,35,13.30
2012,09,20,06,36,13.30
2012,09,20,06,37,13.30
2012,09,20,06,38,13.40
2012,09,20,06,39,13.40
2012,09,20,06,40,13.40
2012,09,20,06,41,13.40
2012,09,20,06,42,13.40
2012,09,20,06,43,13.30
2012,09,20,06,44,13.30
2012,09,20,06,45,13.40
2012,09,20,06,46,13.40
2012,09,20,06,47,13.40
2012,09,20,06,48,13.40
2012,09,20,06,49,13.40
2012,09,20,06,50,13.50
2012,09,20,06,51,13.50
2012,09,20,06,52,13.40
2012,09,20,06,53,13.40
2012,09,20,06,54,13.40
2012,09,20,06,55,13.40
2012,09,20,06,56,13.40
2012,09,20,06,57,13.30
2012,09,20,06,58,13.30
2012,09,20,06,59,13.30
2012,09,20,07,00,13.20
2012,09,20,07,01,13.20
2012,09,20,07,02,13.10
2012,09,20,07,03,13.00
2012,09,20,07,04,12.90
2012,09,20,07,05,12.90
2012,09,20,07,06,12.80
2012,09,20,07,07,12.70
2012,09,20,07,08,12.70
2012,09,20,07,09,12.60
2012,09,20,07,10,12.60
2012,09,20,07,11,12.50
2012,09,20,07,12,12.50
2012,09,20,07,13,12.40
2012,09,20,07,14,12.40
2012,09,20,07,15,12.30
2012,09,20,07,16,12.30
2012,09,20,07,17,12.30
2012,09,20,07,18,12.20
2012,09,20,07,19,12.20
2012,09,20,07,20,12.10
2012,09,20,07,21,12.10
2012,09,20,07,22,12.10
2012,09,20,07,23,12.10
2012,09,20,07,24,12.10
2012,09,20,07,25,12.10
2012,09,20,07,26,12.10
2012,09,20,07,27,12.10
2012,09,20,07,28,12.20
2012,09,20,07,29,12.20
2012,09,20,07,30,12.20
2012,09,20,07,31,12.20
2012,09,20,07,32,12.30
2012,09,20,07,33,12.30
2012,09,20,07,34,12.40
2012,09,20,07,35,12.50
2012,09,20,07,36,12.60
2012,09,20,07,37,12.70
2012,09,20,07,38,12.70
2012,09,20,07,39,12.70
2012,09,20,07,40,12.80
2012,09,20,07,41,12.80
2012,09,20,07,42,12.80
2012,09,20,07,43,12.90
2012,09,20,07,44,12.90
2012,09,20,07,45,12.90
2012,09,20,07,46,13.00
2012,09,20,07,47,13.00
2012,09,20,07,48,13.00
2012,09,20,07,49,13.10
2012,09,20,07,50,13.10
2012,09,20,07,51,13.20
2012,09,20,07,52,13.20
2012,09,20,07,53,13.30
2012,09,20,07,54,13.30
2012,09,20,07,55,13.40
2012,09,20,07,56,13.50
2012,09,20,07,57,13.50
2012,09,20,07,58,13.60
2012,09,20,07,59,13.60
2012,09,20,08,00,13.70
2012,09,20,08,01,13.70
2012,09,20,08,02,13.80
2012,09,20,08,03,13.90
2012,09,20,08,04,13.90
2012,09,20,08,05,14.00
2012,09,20,08,06,14.00
2012,09,20,08,07,14.10
2012,09,20,08,08,14.10
2012,09,20,08,09,14.20
2012,09,20,08,10,14.30
2012,09,20,08,11,14.30
2012,09,20,08,12,14.40
2012,09,20,08,13,14.50
2012,09,20,08,14,14.60
2012,09,20,08,15,14.60
2012,09,20,08,16,14.70
2012,09,20,08,17,14.80
2012,09,20,08,18,15.00
2012,09,20,08,19,15.00
2012,09,20,08,20,15.00
2012,09,20,08,21,15.10
2012,09,20,08,22,15.20
2012,09,20,08,23,15.30
2012,09,20,08,24,15.40
2012,09,20,08,25,15.40
2012,09,20,08,26,15.40
2012,09,20,08,27,15.40
2012,09,20,08,28,15.40
2012,09,20,08,29,15.40
2012,09,20,08,30,15.40
2012,09,20,08,31,15.40
2012,09,20,08,32,15.40
2012,09,20,08,33,15.50
2012,09,20,08,34,15.50
2012,09,20,08,35,15.50
2012,09,20,08,36,15.60
2012,09,20,08,37,15.60
2012,09,20,08,38,15.60
2012,09,20,08,39,15.60
2012,09,20,08,40,15.60
2012,09,20,08,41,15.60
2012,09,20,08,42,15.60
2012,09,20,08,43,15.60
2012,09,20,08,44,15.60
2012,09,20,08,45,15.60
2012,09,20,08,46,15.60
2012,09,20,08,47,15.70
2012,09,20,08,48,15.70
2012,09,20,08,49,15.70
2012,09,20,08,50,15.70
2012,09,20,08,51,15.80
2012,09,20,08,52,15.80
2012,09,20,08,53,15.80
2012,09,20,08,54,15.80
2012,09,20,08,55,15.80
2012,09,20,08,56,15.80
2012,09,20,08,57,15.80
2012,09,20,08,58,15.80
2012,09,20,08,59,15.80
2012,09,20,09,00,15.80
2012,09,20,09,01,15.70
2012,09,20,09,02,15.70
2012,09,20,09,03,15.70
2012,09,20,09,04,15.70
2012,09,20,09,05,15.70
2012,09,20,09,06,15.80
2012,09,20,09,07,15.80
2012,09,20,09,08,15.80
2012,09,20,09,09,15.80
2012,09,20,09,10,15.80
2012,09,20,09,11,15.80
2012,09,20,09,12,15.80
2012,09,20,09,13,15.90
2012,09,20,09,14,15.90
2012,09,20,09,15,15.90
2012,09,20,09,16,15.90
2012,09,20,09,17,15.90
2012,09,20,09,18,16.00
2012,09,20,09,19,16.00
2012,09,20,09,20,16.00
2012,09,20,09,21,16.10
2012,09,20,09,22,16.10
2012,09,20,09,23,16.10
2012,09,20,09,24,16.20
2012,09,20,09,25,16.20
2012,09,20,09,26,16.30
2012,09,20,09,27,16.30
2012,09,20,09,28,16.40
2012,09,20,09,29,16.50
2012,09,20,09,30,16.50
2012,09,20,09,31,16.70
2012,09,20,09,32,16.80
2012,09,20,09,33,16.80
2012,09,20,09,34,16.90
2012,09,20,09,35,17.00
2012,09,20,09,36,17.10
2012,09,20,09,37,17.10
2012,09,20,09,38,17.20
2012,09,20,09,39,17.20
2012,09,20,09,40,17.30
2012,09,20,09,41,17.30
2012,09,20,09,42,17.40
2012,09,20,09,43,17.40
2012,09,20,09,44,17.50
2012,09,20,09,45,17.50
2012,09,20,09,46,17.60
2012,09,20,09,47,17.60
2012,09,20,09,48,17.70
2012,09,20,09,49,17.70
2012,09,20,09,50,17.80
2012,09,20,09,51,17.80
2012,09,20,09,52,17.80
2012,09,20,09,53,17.80
2012,09,20,09,54,17.90
2012,09,20,09,55,18.00
2012,09,20,09,56,18.00
2012,09,20,09,57,18.10
2012,09,20,09,58,18.20
2012,09,20,09,59,18.20
2012,09,20,10,00,18.30
2012,09,20,10,01,18.40
2012,09,20,10,02,18.40
2012,09,20,10,03,18.40
2012,09,20,10,04,18.40
2012,09,20,10,05,18.40
2012,09,20,10,06,18.40
2012,09,20,10,07,18.50
2012,09,20,10,08,18.50
2012,09,20,10,09,18.60
2012,09,20,10,10,18.60
2012,09,20,10,11,18.70
2012,09,20,10,12,18.80
2012,09,20,10,13,18.90
2012,09,20,10,14,19.00
2012,09,20,10,15,19.10
2012,09,20,10,16,19.20
2012,09,20,10,17,19.30
2012,09,20,10,18,19.40
2012,09,20,10,19,19.40
2012,09,20,10,20,19.40
2012,09,20,10,21,19.30
2012,09,20,10,22,19.30
2012,09,20,10,23,19.40
2012,09,20,10,24,19.40
2012,09,20,10,25,19.40
2012,09,20,10,26,19.40
2012,09,20,10,27,19.40
2012,09,20,10,28,19.50
2012,09,20,10,29,19.60
2012,09,20,10,30,19.60
2012,09,20,10,31,19.70
2012,09,20,10,32,19.70
2012,09,20,10,33,19.80
2012,09,20,10,34,19.80
2012,09,20,10,35,19.80
2012,09,20,10,36,19.90
2012,09,20,10,37,19.90
2012,09,20,10,38,20.00
2012,09,20,10,39,20.10
2012,09,20,10,40,20.10
2012,09,20,10,41,20.10
2012,09,20,10,42,20.10
2012,09,20,10,43,20.00
2012,09,20,10,44,19.90
2012,09,20,10,45,19.90
2012,09,20,10,46,19.90
2012,09,20,10,47,19.80
2012,09,20,10,48,19.80
2012,09,20,10,49,19.80
2012,09,20,10,50,19.80
2012,09,20,10,51,19.80
2012,09,20,10,52,19.90
2012,09,20,10,53,19.90
2012,09,20,10,54,20.00
2012,09,20,10,55,20.00
2012,09,20,10,56,20.10
2012,09,20,10,57,20.20
2012,09,20,10,58,20.30
2012,09,20,10,59,20.40
2012,09,20,11,00,20.40
2012,09,20,11,01,20.50
2012,09,20,11,02,20.40
2012,09,20,11,03,20.40
2012,09,20,11,04,20.30
2012,09,20,11,05,20.30
2012,09,20,11,06,20.10
2012,09,20,11,07,20.00
2012,09,20,11,08,20.00
2012,09,20,11,09,19.90
2012,09,20,11,10,19.90
2012,09,20,11,11,19.70
2012,09,20,11,12,19.70
2012,09,20,11,13,19.70
2012,09,20,11,14,19.70
2012,09,20,11,15,19.70
2012,09,20,11,16,19.70
2012,09,20,11,17,19.80
2012,09,20,11,18,19.80
2012,09,20,11,19,19.80
2012,09,20,11,20,19.80
2012,09,20,11,21,19.80
2012,09,20,11,22,19.80
2012,09,20,11,23,19.90
2012,09,20,11,24,19.90
2012,09,20,11,25,20.00
2012,09,20,11,26,20.10
2012,09,20,11,27,20.10
2012,09,20,11,28,20.20
2012,09,20,11,29,20.20
2012,09,20,11,30,20.20
2012,09,20,11,31,20.20
2012,09,20,11,32,20.30
2012,09,20,11,33,20.40
2012,09,20,11,34,20.40
2012,09,20,11,35,20.40
2012,09,20,11,36,20.50
2012,09,20,11,37,20.50
2012,09,20,11,38,20.60
2012,09,20,11,39,20.60
2012,09,20,11,40,20.60
2012,09,20,11,41,20.60
2012,09,20,11,42,20.70
2012,09,20,11,43,20.70
2012,09,20,11,44,20.80
2012,09,20,11,45,20.80
2012,09,20,11,46,20.80
2012,09,20,11,47,20.80
2012,09,20,11,48,20.80
2012,09,20,11,49,20.80
2012,09,20,11,50,20.80
2012,09,20,11,51,20.80
2012,09,20,11,52,20.80
2012,09,20,11,53,20.80
2012,09,20,11,54,20.70
2012,09,20,11,55,20.70
2012,09,20,11,56,20.80
2012,09,20,11,57,20.80
2012,09,20,11,58,20.90
2012,09,20,11,59,20.90
2012,09,20,12,00,20.90
2012,09,20,12,01,20.90
2012,09,20,12,02,20.80
2012,09,20,12,03,20.80
2012,09,20,12,04,20.80
2012,09,20,12,05,20.90
2012,09,20,12,06,20.90
2012,09,20,12,07,21.10
2012,09,20,12,08,21.20
2012,09,20,12,09,21.30
2012,09,20,12,10,21.30
2012,09,20,12,11,21.30
2012,09,20,12,12,21.30
2012,09,20,12,13,21.30
2012,09,20,12,14,21.30
2012,09,20,12,15,21.30
2012,09,20,12,16,21.30
2012,09,20,12,17,21.30
2012,09,20,12,18,21.40
2012,09,20,12,19,21.40
2012,09,20,12,20,21.40
2012,09,20,12,21,21.40
2012,09,20,12,22,21.40
2012,09,20,12,23,21.50
2012,09,20,12,24,21.50
2012,09,20,12,25,21.60
2012,09,20,12,26,21.70
2012,09,20,12,27,21.80
2012,09,20,12,28,21.90
2012,09,20,12,29,21.90
2012,09,20,12,30,21.90
2012,09,20,12,31,22.00
2012,09,20,12,32,22.10
2012,09,20,12,33,22.10
2012,09,20,12,34,22.20
2012,09,20,12,35,22.20
2012,09,20,12,36,22.30
2012,09,20,12,37,22.30
2012,09,20,12,38,22.30
2012,09,20,12,39,22.30
2012,09,20,12,40,22.30
2012,09,20,12,41,22.30
2012,09,20,12,42,22.30
2012,09,20,12,43,22.30
2012,09,20,12,44,22.10
2012,09,20,12,45,22.00
2012,09,20,12,46,22.00
2012,09,20,12,47,22.00
2012,09,20,12,48,22.00
2012,09,20,12,49,22.00
2012,09,20,12,50,22.10
2012,09,20,12,51,22.10
2012,09,20,12,52,22.20
2012,09,20,12,53,22.30
2012,09,20,12,54,22.40
2012,09,20,12,55,22.50
2012,09,20,12,56,22.50
2012,09,20,12,57,22.60
2012,09,20,12,58,22.60
2012,09,20,12,59,22.50
2012,09,20,13,00,22.50
2012,09,20,13,01,22.50
2012,09,20,13,02,22.50
2012,09,20,13,03,22.50
2012,09,20,13,04,22.40
2012,09,20,13,05,22.40
2012,09,20,13,06,22.40
2012,09,20,13,07,22.40
2012,09,20,13,08,22.50
2012,09,20,13,09,22.50
2012,09,20,13,10,22.60
2012,09,20,13,11,22.60
2012,09,20,13,12,22.60
2012,09,20,13,13,22.50
2012,09,20,13,14,22.50
2012,09,20,13,15,22.50
2012,09,20,13,16,22.70
2012,09,20,13,17,22.70
2012,09,20,13,18,22.70
2012,09,20,13,19,22.60
2012,09,20,13,20,22.40
2012,09,20,13,21,22.40
2012,09,20,13,22,22.40
2012,09,20,13,23,22.40
2012,09,20,13,24,22.50
2012,09,20,13,25,22.50
2012,09,20,13,26,22.60
2012,09,20,13,27,22.60
2012,09,20,13,28,22.70
2012,09,20,13,29,22.70
2012,09,20,13,30,22.70
2012,09,20,13,31,22.70
2012,09,20,13,32,22.70
2012,09,20,13,33,22.70
2012,09,20,13,34,22.80
2012,09,20,13,35,22.80
2012,09,20,13,36,22.80
2012,09,20,13,37,22.80
2012,09,20,13,38,22.90
2012,09,20,13,39,23.00
2012,09,20,13,40,23.10
2012,09,20,13,41,23.10
2012,09,20,13,42,23.10
2012,09,20,13,43,23.20
2012,09,20,13,44,23.20
2012,09,20,13,45,23.20
2012,09,20,13,46,23.30
2012,09,20,13,47,23.30
2012,09,20,13,48,23.30
2012,09,20,13,49,23.30
2012,09,20,13,50,23.20
2012,09,20,13,51,23.20
2012,09,20,13,52,23.20
2012,09,20,13,53,23.20
2012,09,20,13,54,23.20
2012,09,20,13,55,23.20
2012,09,20,13,56,23.30
2012,09,20,13,57,23.20
2012,09,20,13,58,23.20
2012,09,20,13,59,23.20
2012,09,20,14,00,23.10
2012,09,20,14,01,23.10
2012,09,20,14,02,23.10
2012,09,20,14,03,23.10
2012,09,20,14,04,23.00
2012,09,20,14,05,22.90
2012,09,20,14,06,23.00
2012,09,20,14,07,23.10
2012,09,20,14,08,23.10
2012,09,20,14,09,23.10
2012,09,20,14,10,23.00
2012,09,20,14,11,23.00
2012,09,20,14,12,23.00
2012,09,20,14,13,23.00
2012,09,20,14,14,23.00
2012,09,20,14,15,23.00
2012,09,20,14,16,23.00
2012,09,20,14,17,22.90
2012,09,20,14,18,23.00
2012,09,20,14,19,23.00
2012,09,20,14,20,23.10
2012,09,20,14,21,23.20
2012,09,20,14,22,23.20
2012,09,20,14,23,23.20
2012,09,20,14,24,23.30
2012,09,20,14,25,23.30
2012,09,20,14,26,23.30
2012,09,20,14,27,23.30
2012,09,20,14,28,23.30
2012,09,20,14,29,23.30
2012,09,20,14,30,23.30
2012,09,20,14,31,23.40
2012,09,20,14,32,23.40
2012,09,20,14,33,23.50
2012,09,20,14,34,23.60
2012,09,20,14,35,23.70
2012,09,20,14,36,23.70
2012,09,20,14,37,23.60
2012,09,20,14,38,23.60
2012,09,20,14,39,23.60
2012,09,20,14,40,23.60
2012,09,20,14,41,23.60
2012,09,20,14,42,23.60
2012,09,20,14,43,23.60
2012,09,20,14,44,23.60
2012,09,20,14,45,23.60
2012,09,20,14,46,23.50
2012,09,20,14,47,23.50
2012,09,20,14,48,23.40
2012,09,20,14,49,23.50
2012,09,20,14,50,23.50
2012,09,20,14,51,23.50
2012,09,20,14,52,23.50
2012,09,20,14,53,23.60
2012,09,20,14,54,23.70
2012,09,20,14,55,23.70
2012,09,20,14,56,23.80
2012,09,20,14,57,23.80
2012,09,20,14,58,23.80
2012,09,20,14,59,23.80
2012,09,20,15,00,23.80
2012,09,20,15,01,23.80
2012,09,20,15,02,23.80
2012,09,20,15,03,23.80
2012,09,20,15,04,23.80
2012,09,20,15,05,23.80
2012,09,20,15,06,23.90
2012,09,20,15,07,23.90
2012,09,20,15,08,24.00
2012,09,20,15,09,24.00
2012,09,20,15,10,24.00
2012,09,20,15,11,24.00
2012,09,20,15,12,24.00
2012,09,20,15,13,24.00
2012,09,20,15,14,24.00
2012,09,20,15,15,24.00
2012,09,20,15,16,24.10
2012,09,20,15,17,24.10
2012,09,20,15,18,24.10
2012,09,20,15,19,24.10
2012,09,20,15,20,24.20
2012,09,20,15,21,24.20
2012,09,20,15,22,24.20
2012,09,20,15,23,24.20
2012,09,20,15,24,24.20
2012,09,20,15,25,24.30
2012,09,20,15,26,24.30
2012,09,20,15,27,24.30
2012,09,20,15,28,24.30
2012,09,20,15,29,24.30
2012,09,20,15,30,24.30
2012,09,20,15,31,24.30
2012,09,20,15,32,24.20
2012,09,20,15,33,24.20
2012,09,20,15,34,24.20
2012,09,20,15,35,24.10
2012,09,20,15,36,24.10
2012,09,20,15,37,24.20
2012,09,20,15,38,24.30
2012,09,20,15,39,24.40
2012,09,20,15,40,24.40
2012,09,20,15,41,24.40
2012,09,20,15,42,24.40
2012,09,20,15,43,24.40
2012,09,20,15,44,24.30
2012,09,20,15,45,24.30
2012,09,20,15,46,24.40
2012,09,20,15,47,24.40
2012,09,20,15,48,24.40
2012,09,20,15,49,24.40
2012,09,20,15,50,24.40
2012,09,20,15,51,24.40
2012,09,20,15,52,24.40
2012,09,20,15,53,24.40
2012,09,20,15,54,24.40
2012,09,20,15,55,24.40
2012,09,20,15,56,24.40
2012,09,20,15,57,24.40
2012,09,20,15,58,24.50
2012,09,20,15,59,24.50
2012,09,20,16,00,24.50
2012,09,20,16,01,24.50
2012,09,20,16,02,24.50
2012,09,20,16,03,24.50
2012,09,20,16,04,24.40
2012,09,20,16,05,24.40
2012,09,20,16,06,24.40
2012,09,20,16,07,24.50
2012,09,20,16,08,24.50
2012,09,20,16,09,24.60
2012,09,20,16,10,24.60
2012,09,20,16,11,24.60
2012,09,20,16,12,24.60
2012,09,20,16,13,24.70
2012,09,20,16,14,24.70
2012,09,20,16,15,24.60
2012,09,20,16,16,24.60
2012,09,20,16,17,24.60
2012,09,20,16,18,24.60
2012,09,20,16,19,24.70
2012,09,20,16,20,24.70
2012,09,20,16,21,24.70
2012,09,20,16,22,24.60
2012,09,20,16,23,24.60
2012,09,20,16,24,24.50
2012,09,20,16,25,24.50
2012,09,20,16,26,24.50
2012,09,20,16,27,24.40
2012,09,20,16,28,24.40
2012,09,20,16,29,24.50
2012,09,20,16,30,24.60
2012,09,20,16,31,24.60
2012,09,20,16,32,24.60
2012,09,20,16,33,24.50
2012,09,20,16,34,24.50
2012,09,20,16,35,24.50
2012,09,20,16,36,24.50
2012,09,20,16,37,24.60
2012,09,20,16,38,24.70
2012,09,20,16,39,24.70
2012,09,20,16,40,24.70
2012,09,20,16,41,24.60
2012,09,20,16,42,24.60
2012,09,20,16,43,24.50
2012,09,20,16,44,24.40
2012,09,20,16,45,24.40
2012,09,20,16,46,24.30
2012,09,20,16,47,24.30
2012,09,20,16,48,24.20
2012,09,20,16,49,24.20
2012,09,20,16,50,24.20
2012,09,20,16,51,24.20
2012,09,20,16,52,24.30
2012,09,20,16,53,24.30
2012,09,20,16,54,24.30
2012,09,20,16,55,24.40
2012,09,20,16,56,24.40
2012,09,20,16,57,24.40
2012,09,20,16,58,24.30
2012,09,20,16,59,24.30
2012,09,20,17,00,24.30
2012,09,20,17,01,24.30
2012,09,20,17,02,24.30
2012,09,20,17,03,24.30
2012,09,20,17,04,24.30
2012,09,20,17,05,24.30
2012,09,20,17,06,24.30
2012,09,20,17,07,24.20
2012,09,20,17,08,24.20
2012,09,20,17,09,24.20
2012,09,20,17,10,24.10
2012,09,20,17,11,24.10
2012,09,20,17,12,24.10
2012,09,20,17,13,24.10
2012,09,20,17,14,24.10
2012,09,20,17,15,24.10
2012,09,20,17,16,24.00
2012,09,20,17,17,24.00
2012,09,20,17,18,23.90
2012,09,20,17,19,23.90